Change the Weather History Date:

Sunday, September 9, 2012

  Actual Average Record
Temperature  
Mean Temperature 59 °F 58 °F  
Max Temperature 70 °F 65 °F 88 °F (2007)
Min Temperature 48 °F 51 °F 39 °F (1913)
Degree Days  
Heating Degree Days 6 7  
Month to date heating degree days 74 58  
Since 1 July heating degree days 405 437  
Cooling Degree Days 0 0  
Month to date cooling degree days 0 0  
Year to date cooling degree days 0 1  
Growing Degree Days 8 (Base 50)    
Moisture  
Dew Point 53 °F    
Average Humidity 84    
Maximum Humidity 100    
Minimum Humidity 53    
Precipitation  
Precipitation 0.00 in 0.04 in 1.23 in (1956)
Month to date precipitation 0.00 0.34  
Year to date precipitation 28.80 37.58  
Sea Level Pressure  
Sea Level Pressure 30.09 in    
Wind  
Wind Speed 5 mph (South)    
Max Wind Speed 10 mph    
Max Gust Speed -    
Visibility 10 miles    
Events      
T = Trace of Precipitation, MM = Missing Value Source: NWS Daily Summary

Daily Weather History Graph

Daily Weather History Graph

Search for Another Location

Airport or City:

Trip Planner

Search our weather history database for the weather conditions in past years. The results will help you decide how hot, cold, wet, or windy it might be!

Date:

Astronomy

Sep. 09, 2012 Rise Set
Actual Time 6:50 AM PDT 7:36 PM PDT
Civil Twilight 6:21 AM PDT 8:05 PM PDT
Nautical Twilight 5:47 AM PDT 8:40 PM PDT
Astronomical Twilight 5:11 AM PDT 9:15 PM PDT
Moon 12:16 AM PDT (9/9) 3:34 PM PDT (9/9)
Length of Visible Light 13h 44m
Length of Day
12h 46m
Last Quarter, 38% of the Moon is Illuminated
Sep 9
Last Quarter
Sep 15
New
Sep 22
First Quarter
Sep 29
Full
Oct 8
Last Quarter

Hourly Weather History & Observations

Time (PDT) Temp. Dew Point Humidity Pressure Visibility Wind Dir Wind Speed Gust Speed Precip Events Conditions
12:15 AM 55.4 °F 51.8 °F 88% 30.08 in 10.0 mi Calm Calm - N/A   Overcast
12:35 AM 55.4 °F 51.8 °F 88% 30.08 in 10.0 mi SSE 4.6 mph - N/A   Overcast
12:55 AM 53.6 °F 51.8 °F 94% 30.08 in 10.0 mi SE 5.8 mph - N/A   Overcast
1:15 AM 53.6 °F 51.8 °F 94% 30.07 in 10.0 mi SE 6.9 mph - N/A   Overcast
1:35 AM 53.6 °F 51.8 °F 94% 30.07 in 10.0 mi SE 9.2 mph - N/A   Mostly Cloudy
1:55 AM 51.8 °F 51.8 °F 100% 30.07 in 10.0 mi SE 9.2 mph - N/A   Partly Cloudy
2:15 AM 51.8 °F 51.8 °F 100% 30.06 in 10.0 mi SE 8.1 mph - N/A   Clear
2:35 AM 51.8 °F 48.2 °F 88% 30.06 in 10.0 mi SSE 6.9 mph - N/A   Clear
2:55 AM 50.0 °F 48.2 °F 94% 30.06 in 10.0 mi SSE 6.9 mph - N/A   Clear
3:15 AM 51.8 °F 50.0 °F 94% 30.06 in 10.0 mi SE 6.9 mph - N/A   Clear
3:35 AM 51.8 °F 50.0 °F 94% 30.06 in 10.0 mi SE 8.1 mph - N/A   Clear
3:55 AM 50.0 °F 48.2 °F 94% 30.06 in 10.0 mi SSE 6.9 mph - N/A   Clear
4:15 AM 48.2 °F 48.2 °F 100% 30.06 in 10.0 mi SSE 5.8 mph - N/A   Clear
4:35 AM 48.2 °F 46.4 °F 93% 30.06 in 10.0 mi Calm Calm - N/A   Clear
4:55 AM 51.8 °F 50.0 °F 94% 30.07 in 10.0 mi WSW 3.5 mph - N/A   Mostly Cloudy
5:15 AM 50.0 °F 48.2 °F 94% 30.07 in 10.0 mi Calm Calm - N/A   Overcast
5:35 AM 50.0 °F 48.2 °F 94% 30.07 in 10.0 mi Calm Calm - N/A   Overcast
5:55 AM 50.0 °F 48.2 °F 94% 30.07 in 10.0 mi SE 4.6 mph - N/A   Overcast
6:15 AM 51.8 °F 50.0 °F 94% 30.07 in 10.0 mi SE 6.9 mph - N/A   Overcast
6:35 AM 51.8 °F 50.0 °F 94% 30.07 in 10.0 mi SE 4.6 mph - N/A   Overcast
6:55 AM 50.0 °F 50.0 °F 100% 30.07 in 10.0 mi South 3.5 mph - N/A   Overcast
7:15 AM 51.8 °F 50.0 °F 94% 30.07 in 10.0 mi SSE 6.9 mph - N/A   Overcast
7:35 AM 51.8 °F 50.0 °F 94% 30.07 in 10.0 mi SE 9.2 mph - N/A   Overcast
7:55 AM 51.8 °F 50.0 °F 94% 30.08 in 10.0 mi SE 8.1 mph - N/A   Overcast
8:15 AM 53.6 °F 50.0 °F 88% 30.09 in 10.0 mi SE 8.1 mph - N/A   Overcast
8:35 AM 53.6 °F 51.8 °F 94% 30.09 in 10.0 mi SE 8.1 mph - N/A   Overcast
8:55 AM 55.4 °F 51.8 °F 88% 30.09 in 10.0 mi SE 4.6 mph - N/A   Overcast
9:15 AM 57.2 °F 51.8 °F 82% 30.09 in 10.0 mi SE 5.8 mph - N/A   Overcast
9:35 AM 57.2 °F 51.8 °F 82% 30.09 in 10.0 mi SE 5.8 mph - N/A   Overcast
9:55 AM 60.8 °F 51.8 °F 72% 30.10 in 10.0 mi SE 5.8 mph - N/A   Overcast
10:15 AM 62.6 °F 50.0 °F 63% 30.10 in 10.0 mi SE 6.9 mph - N/A   Overcast
10:35 AM 62.6 °F 51.8 °F 68% 30.10 in 10.0 mi SE 6.9 mph - N/A   Mostly Cloudy
10:55 AM 64.4 °F 50.0 °F 59% 30.10 in 10.0 mi SE 5.8 mph - N/A   Scattered Clouds
11:15 AM 64.4 °F 48.2 °F 56% 30.11 in 10.0 mi SE 3.5 mph - N/A   Scattered Clouds
11:35 AM 66.2 °F 50.0 °F 56% 30.10 in 10.0 mi East 5.8 mph - N/A   Scattered Clouds
11:55 AM 68.0 °F 50.0 °F 52% 30.10 in 10.0 mi Calm Calm - N/A   Overcast
12:15 PM 66.2 °F 51.8 °F 60% 30.10 in 10.0 mi Calm Calm - N/A   Overcast
12:35 PM 62.6 °F 53.6 °F 72% 30.10 in 10.0 mi West 9.2 mph - N/A   Overcast
12:55 PM 64.4 °F 53.6 °F 68% 30.10 in 10.0 mi West 8.1 mph - N/A   Overcast
1:15 PM 64.4 °F 53.6 °F 68% 30.10 in 10.0 mi West 11.5 mph - N/A   Overcast
1:35 PM 64.4 °F 53.6 °F 68% 30.10 in 10.0 mi West 10.4 mph - N/A   Overcast
1:55 PM 64.4 °F 53.6 °F 68% 30.10 in 10.0 mi West 10.4 mph - N/A   Overcast
2:15 PM 62.6 °F 53.6 °F 72% 30.10 in 10.0 mi West 11.5 mph - N/A   Overcast
2:35 PM 62.6 °F 53.6 °F 72% 30.10 in 10.0 mi West 12.7 mph - N/A   Overcast
2:55 PM 64.4 °F 53.6 °F 68% 30.10 in 10.0 mi West 9.2 mph - N/A   Mostly Cloudy
3:15 PM 62.6 °F 55.4 °F 77% 30.09 in 10.0 mi West 9.2 mph - N/A   Mostly Cloudy
3:35 PM 62.6 °F 55.4 °F 77% 30.09 in 10.0 mi West 6.9 mph - N/A   Mostly Cloudy
3:55 PM 64.4 °F 53.6 °F 68% 30.09 in 10.0 mi West 8.1 mph - N/A   Mostly Cloudy
4:15 PM 64.4 °F 53.6 °F 68% 30.10 in 10.0 mi West 9.2 mph - N/A   Mostly Cloudy
4:35 PM 64.4 °F 53.6 °F 68% 30.10 in 10.0 mi West 9.2 mph - N/A   Mostly Cloudy
4:55 PM 64.4 °F 55.4 °F 73% 30.09 in 10.0 mi West 9.2 mph - N/A   Mostly Cloudy
5:15 PM 64.4 °F 55.4 °F 73% 30.10 in 10.0 mi WNW 8.1 mph - N/A   Clear
5:35 PM 62.6 °F 55.4 °F 77% 30.10 in 10.0 mi WNW 5.8 mph - N/A   Clear
5:55 PM 62.6 °F 57.2 °F 82% 30.10 in 10.0 mi WNW 8.1 mph - N/A   Clear
6:15 PM 62.6 °F 57.2 °F 82% 30.09 in 10.0 mi NW 6.9 mph - N/A   Clear
6:35 PM 62.6 °F 57.2 °F 82% 30.09 in 10.0 mi NW 5.8 mph - N/A   Clear
6:55 PM 62.6 °F 57.2 °F 82% 30.09 in 10.0 mi NW 3.5 mph - N/A   Clear
7:15 PM 60.8 °F 57.2 °F 88% 30.08 in 10.0 mi NW 4.6 mph - N/A   Mostly Cloudy
7:35 PM 60.8 °F 57.2 °F 88% 30.09 in 10.0 mi NNW 3.5 mph - N/A   Overcast
7:55 PM 60.8 °F 57.2 °F 88% 30.09 in 10.0 mi Calm Calm - N/A   Overcast
8:15 PM 60.8 °F 57.2 °F 88% 30.09 in 10.0 mi Calm Calm - N/A   Overcast
8:35 PM 60.8 °F 57.2 °F 88% 30.09 in 10.0 mi Calm Calm - N/A   Overcast
8:55 PM 60.8 °F 57.2 °F 88% 30.10 in 10.0 mi NNE 3.5 mph - N/A   Overcast
9:15 PM 60.8 °F 57.2 °F 88% 30.10 in 10.0 mi North 3.5 mph - N/A   Overcast
9:35 PM 60.8 °F 57.2 °F 88% 30.11 in 10.0 mi North 3.5 mph - N/A   Overcast
9:55 PM 60.8 °F 57.2 °F 88% 30.11 in 10.0 mi North 4.6 mph - N/A   Overcast
10:15 PM 60.8 °F 57.2 °F 88% 30.11 in 10.0 mi North 3.5 mph - N/A   Overcast
10:35 PM 59.0 °F 57.2 °F 94% 30.10 in 10.0 mi Calm Calm - N/A   Overcast
10:55 PM 57.2 °F 57.2 °F 100% 30.10 in 10.0 mi Calm Calm - N/A   Mostly Cloudy
11:15 PM 57.2 °F 57.2 °F 100% 30.10 in 10.0 mi Calm Calm - N/A   Clear
11:35 PM 57.2 °F 57.2 °F 100% 30.10 in 10.0 mi Calm Calm - N/A   Clear
11:55 PM 57.2 °F 57.2 °F 100% 30.10 in 10.0 mi Calm Calm - N/A   Clear